Location: Carbonear
(47.7333°N, 53.2500°W)
Time: 02:19:06
(UTC+00:00)

DIWATA 2B (PO-101) - Visible Passes

Search period start: 10 December 2022 00:00
Search period end: 20 December 2022 00:00
Orbit: 582 x 598 km, 98.0° (Epoch: 09 December)

Date Brightness Start Highest point End Pass type
(mag) Time Alt. Az. Time Alt. Az. Time Alt. Az.
15 Dec ? 20:13:38 10° NNW 20:15:55 15° WNW 20:18:14 10° W visible
16 Dec ? 20:22:04 10° NNW 20:23:49 12° WNW 20:25:36 10° W visible
17 Dec ? 20:30:50 10° NW 20:31:43 11° WNW 20:32:36 10° WNW visible
